Погода в Глендейле

США     33°32′16″N   112°17′22″W
темп.,
°C
ветер,
м/с
пор.,
м/с
влажн.,
%
обл.,
%
осадки,
мм/ч
давл.,
гПа
погр.,
м
19 апреля, пн
пн1923:00+23всв13191 0.0 1013198
02:00+21св46240 0.0 1013399
05:00+19св23260 0.0 1014206
08:00+21в22230 0.0 1015398
11:00+25в23180 0.0 10151139
14:00+28ссз13110 0.0 10121861
17:00+30ююз4780 0.0 10092775
20:00+27юз3491 0.0 1009240
20 апреля, вт
вт2023:00+24юз2590 0.0 1010165
02:00+23зюз11100 0.0 101025
05:00+22юв22120 0.0 101034
08:00+23вюв23130 0.0 1012266
11:00+28юз2490 0.0 10111294
14:00+32юз4660 0.0 10073445
17:00+33юз7760 0.0 10053744
20:00+28зюз61070 0.0 1006887
21 апреля, ср
ср2123:00+24юз512110 0.0 1007411
02:00+23ю14120 0.0 1007249
05:00+21вюв23140 0.0 1007165
08:00+22ююв66143 0.0 1008450
11:00+28ююз610599 0.0 10072524
14:00+30юз111382 0.0 10042839
17:00+29юз1011100 0.0 10033032
20:00+25юз79152 0.0 1005915
22 апреля, чт
чт2223:00+21юз611230 0.0 1007438
02:00+19юз36290 0.0 1007429
05:00+18зюз34370 0.0 1008353
08:00+19зсз21360 0.0 1011720
11:00+22с11250 0.0 10101484
14:00+25с23180 0.0 10071953
17:00+27зсз23140 0.0 10042769
20:00+25з56170 0.0 1006775
23 апреля, пт
пт2323:00+22юз610270 0.0 1008542
02:00+19зюз36410 0.0 1010469
05:00+18юз23434 0.0 1011337
08:00+19ссв02360 0.0 1012776
11:00+23юв22270 0.0 10121358
14:00+27зюз34190 0.0 10102179
17:00+29з66150 0.0 10082957
20:00+27юз581853 0.0 1009849